| time (UTC) | temp F | wind direction | speed MPH | gust MPH | rain 1hr in | rain 24hr in | rain mn in | humidity % | barometer mb |
| 20260506212003 | 77 | 307 | 5.0 | 12.0 | 0.00 | 0.00 | 0.00 | 26 | 1023.9 |
| 20260506211503 | 77 | 21 | 4.0 | 8.0 | 0.00 | 0.00 | 0.00 | 26 | 1024.0 |
| 20260506211003 | 77 | 38 | 4.0 | 12.0 | 0.00 | 0.00 | 0.00 | 26 | 1024.1 |
| 20260506210503 | 78 | 352 | 3.0 | 12.0 | 0.00 | 0.00 | 0.00 | 26 | 1024.0 |
| 20260506210003 | 78 | 49 | 5.0 | 9.0 | 0.00 | 0.00 | 0.00 | 26 | 1024.0 |
| 20260506205503 | 78 | 103 | 3.0 | 7.0 | 0.00 | 0.00 | 0.00 | 26 | 1024.1 |
| 20260506205005 | 77 | 103 | 4.0 | 8.0 | 0.00 | 0.00 | 0.00 | 27 | 1024.2 |
| 20260506204504 | 77 | 75 | 2.0 | 7.0 | 0.00 | 0.00 | 0.00 | 27 | 1024.2 |
| 20260506203503 | 76 | 31 | 1.0 | 5.0 | 0.00 | 0.00 | 0.00 | 27 | 1024.4 |
| 20260506203003 | 76 | 60 | 3.0 | 10.0 | 0.00 | 0.00 | 0.00 | 28 | 1024.4 |
| 20260506202503 | 75 | 65 | 3.0 | 9.0 | 0.00 | 0.00 | 0.00 | 28 | 1024.2 |
| 20260506202003 | 74 | 92 | 2.0 | 12.0 | 0.00 | 0.00 | 0.00 | 28 | 1024.4 |
| 20260506201504 | 74 | 14 | 6.0 | 13.0 | 0.00 | 0.00 | 0.00 | 28 | 1024.5 |
| 20260506201004 | 74 | 9 | 7.0 | 12.0 | 0.00 | 0.00 | 0.00 | 29 | 1024.5 |
| 20260506200503 | 75 | 305 | 6.0 | 12.0 | 0.00 | 0.00 | 0.00 | 28 | 1024.6 |
| 20260506200003 | 75 | 336 | 10.0 | 14.0 | 0.00 | 0.00 | 0.00 | 28 | 1024.6 |
| 20260506195504 | 75 | 13 | 4.0 | 13.0 | 0.00 | 0.00 | 0.00 | 29 | 1024.5 |
| 20260506194503 | 74 | 14 | 10.0 | 16.0 | 0.00 | 0.00 | 0.00 | 29 | 1024.6 |
| 20260506194003 | 75 | 20 | 10.0 | 14.0 | 0.00 | 0.00 | 0.00 | 29 | 1024.4 |
| 20260506193503 | 74 | 42 | 5.0 | 12.0 | 0.00 | 0.00 | 0.00 | 29 | 1024.5 |
| 20260506193004 | 74 | 33 | 7.0 | 14.0 | 0.00 | 0.00 | 0.00 | 30 | 1024.5 |
| 20260506192003 | 74 | 34 | 5.0 | 12.0 | 0.00 | 0.00 | 0.00 | 28 | 1024.6 |
| 20260506191503 | 74 | 75 | 5.0 | 10.0 | 0.00 | 0.00 | 0.00 | 29 | 1024.6 |
| 20260506191003 | 73 | 10 | 7.0 | 12.0 | 0.00 | 0.00 | 0.00 | 28 | 1024.6 |
| 20260506190503 | 74 | 332 | 3.0 | 9.0 | 0.00 | 0.00 | 0.00 | 28 | 1024.8 |
| 20260506185502 | 74 | 32 | 8.0 | 15.0 | 0.00 | 0.00 | 0.00 | 28 | 1024.8 |
| 20260506185003 | 73 | 39 | 5.0 | 14.0 | 0.00 | 0.00 | 0.00 | 29 | 1024.8 |
| 20260506184503 | 73 | 17 | 9.0 | 15.0 | 0.00 | 0.00 | 0.00 | 28 | 1024.8 |
| 20260506184003 | 73 | 32 | 8.0 | 14.0 | 0.00 | 0.00 | 0.00 | 29 | 1024.9 |
| 20260506183003 | 72 | 42 | 7.0 | 14.0 | 0.00 | 0.00 | 0.00 | 28 | 1025.0 |
| 20260506182503 | 72 | 22 | 6.0 | 15.0 | 0.00 | 0.00 | 0.00 | 28 | 1024.8 |
| 20260506182003 | 72 | 11 | 7.0 | 15.0 | 0.00 | 0.00 | 0.00 | 28 | 1024.8 |
| 20260506181503 | 72 | 343 | 10.0 | 17.0 | 0.00 | 0.00 | 0.00 | 28 | 1024.7 |
| 20260506180503 | 73 | 19 | 10.0 | 15.0 | 0.00 | 0.00 | 0.00 | 28 | 1024.7 |
| 20260506180004 | 72 | 17 | 7.0 | 15.0 | 0.00 | 0.00 | 0.00 | 29 | 1024.7 |
| 20260506175503 | 71 | 11 | 10.0 | 16.0 | 0.00 | 0.00 | 0.00 | 28 | 1024.7 |
| 20260506175003 | 71 | 5 | 8.0 | 14.0 | 0.00 | 0.00 | 0.00 | 30 | 1024.7 |
| 20260506174503 | 71 | 8 | 10.0 | 14.0 | 0.00 | 0.00 | 0.00 | 30 | 1024.7 |
| 20260506174004 | 70 | 347 | 9.0 | 15.0 | 0.00 | 0.00 | 0.00 | 30 | 1024.7 |
| 20260506173503 | 70 | 24 | 10.0 | 15.0 | 0.00 | 0.00 | 0.00 | 30 | 1024.7 |
| 20260506173003 | 71 | 12 | 10.0 | 13.0 | 0.00 | 0.00 | 0.00 | 30 | 1024.6 |
| 20260506172503 | 71 | 4 | 10.0 | 15.0 | 0.00 | 0.00 | 0.00 | 29 | 1024.6 |
| 20260506172003 | 70 | 346 | 9.0 | 13.0 | 0.00 | 0.00 | 0.00 | 29 | 1024.6 |
| 20260506171503 | 70 | 9 | 9.0 | 13.0 | 0.00 | 0.00 | 0.00 | 29 | 1024.5 |
| 20260506171003 | 70 | 346 | 9.0 | 14.0 | 0.00 | 0.00 | 0.00 | 29 | 1024.4 |
| 20260506170503 | 70 | 357 | 9.0 | 14.0 | 0.00 | 0.00 | 0.00 | 30 | 1024.4 |
| 20260506170003 | 70 | 2 | 8.0 | 13.0 | 0.00 | 0.00 | 0.00 | 30 | 1024.4 |
| 20260506165503 | 69 | 20 | 8.0 | 12.0 | 0.00 | 0.00 | 0.00 | 32 | 1024.3 |
| 20260506165003 | 69 | 42 | 4.0 | 12.0 | 0.00 | 0.00 | 0.00 | 34 | 1024.4 |
| 20260506164504 | 68 | 49 | 5.0 | 12.0 | 0.00 | 0.00 | 0.00 | 35 | 1024.3 |
| 20260506164003 | 67 | 39 | 3.0 | 13.0 | 0.00 | 0.00 | 0.00 | 36 | 1024.3 |
| 20260506163003 | 67 | 51 | 6.0 | 12.0 | 0.00 | 0.00 | 0.00 | 37 | 1024.3 |
| 20260506162503 | 66 | 39 | 7.0 | 13.0 | 0.00 | 0.00 | 0.00 | 37 | 1024.0 |
| 20260506162003 | 66 | 42 | 7.0 | 12.0 | 0.00 | 0.00 | 0.00 | 37 | 1024.0 |
| 20260506161503 | 66 | 39 | 5.0 | 12.0 | 0.00 | 0.00 | 0.00 | 37 | 1024.0 |
| 20260506161004 | 66 | 34 | 6.0 | 13.0 | 0.00 | 0.00 | 0.00 | 38 | 1023.9 |
| 20260506160504 | 67 | 35 | 7.0 | 12.0 | 0.00 | 0.00 | 0.00 | 35 | 1023.9 |
| 20260506160004 | 67 | 32 | 6.0 | 12.0 | 0.00 | 0.00 | 0.00 | 34 | 1023.9 |
| 20260506155504 | 67 | 83 | 3.0 | 6.0 | 0.00 | 0.00 | 0.00 | 34 | 1023.9 |
| 20260506155003 | 66 | 105 | 2.0 | 3.0 | 0.00 | 0.00 | 0.00 | 34 | 1023.9 |
| 20260506154504 | 66 | 105 | 1.0 | 3.0 | 0.00 | 0.00 | 0.00 | 35 | 1024.1 |
| 20260506154003 | 65 | 133 | 0.0 | 2.0 | 0.00 | 0.00 | 0.00 | 35 | 1024.0 |
| 20260506153504 | 65 | 133 | 2.0 | 3.0 | 0.00 | 0.00 | 0.00 | 36 | 1024.0 |
| 20260506153004 | 64 | 135 | 3.0 | 5.0 | 0.00 | 0.00 | 0.00 | 36 | 1024.1 |
| 20260506152503 | 63 | 112 | 1.0 | 5.0 | 0.00 | 0.00 | 0.00 | 37 | 1024.1 |
| 20260506152003 | 63 | 28 | 1.0 | 3.0 | 0.00 | 0.00 | 0.00 | 38 | 1024.0 |
| 20260506151004 | 62 | 24 | 2.0 | 3.0 | 0.00 | 0.00 | 0.00 | 39 | 1024.0 |
| 20260506150504 | 61 | 173 | 2.0 | 7.0 | 0.00 | 0.00 | 0.00 | 39 | 1024.1 |
| 20260506150005 | 61 | 150 | 4.0 | 6.0 | 0.00 | 0.00 | 0.00 | 41 | 1024.2 |
| 20260506145503 | 61 | 150 | 4.0 | 6.0 | 0.00 | 0.00 | 0.00 | 41 | 1024.1 |
| 20260506145003 | 60 | 167 | 3.0 | 3.0 | 0.00 | 0.00 | 0.00 | 41 | 1024.2 |
| 20260506144503 | 60 | 205 | 0.0 | 2.0 | 0.00 | 0.00 | 0.00 | 42 | 1024.2 |
| 20260506144005 | 60 | 205 | 1.0 | 2.0 | 0.00 | 0.00 | 0.00 | 43 | 1024.2 |
| 20260506143503 | 59 | 205 | 0.0 | 2.0 | 0.00 | 0.00 | 0.00 | 43 | 1024.2 |
| 20260506143004 | 58 | 205 | 0.0 | 2.0 | 0.00 | 0.00 | 0.00 | 44 | 1024.2 |
| 20260506142504 | 58 | 205 | 0.0 | 1.0 | 0.00 | 0.00 | 0.00 | 45 | 1023.9 |
| 20260506142003 | 57 | 205 | 0.0 | 1.0 | 0.00 | 0.00 | 0.00 | 45 | 1023.9 |
| 20260506141504 | 57 | 205 | 0.0 | 3.0 | 0.00 | 0.00 | 0.00 | 45 | 1023.7 |
| 20260506140504 | 55 | 221 | 0.0 | 2.0 | 0.00 | 0.00 | 0.00 | 47 | 1023.7 |
| 20260506140003 | 55 | 221 | 0.0 | 0.0 | 0.00 | 0.00 | 0.00 | 47 | 1023.5 |
| 20260506135003 | 52 | 221 | 0.0 | 0.0 | 0.00 | 0.00 | 0.00 | 49 | 1023.5 |
| 20260506134004 | 50 | 221 | 0.0 | 0.0 | 0.00 | 0.00 | 0.00 | 51 | 1023.4 |
| 20260506133503 | 49 | 221 | 0.0 | 0.0 | 0.00 | 0.00 | 0.00 | 52 | 1023.3 |
| 20260506133004 | 49 | 221 | 0.0 | 1.0 | 0.00 | 0.00 | 0.00 | 53 | 1023.2 |
| 20260506132504 | 48 | 225 | 0.0 | 1.0 | 0.00 | 0.00 | 0.00 | 55 | 1023.2 |
| 20260506132003 | 47 | 225 | 0.0 | 0.0 | 0.00 | 0.00 | 0.00 | 55 | 1023.1 |
| 20260506131503 | 47 | 225 | 0.0 | 0.0 | 0.00 | 0.00 | 0.00 | 55 | 1023.0 |
| 20260506130503 | 47 | 225 | 1.0 | 3.0 | 0.00 | 0.00 | 0.00 | 55 | 1022.9 |
| 20260506130003 | 46 | 226 | 1.0 | 3.0 | 0.00 | 0.00 | 0.00 | 56 | 1022.9 |
| 20260506125003 | 46 | 225 | 0.0 | 0.0 | 0.00 | 0.00 | 0.00 | 56 | 1022.8 |
| 20260506124503 | 47 | 225 | 0.0 | 1.0 | 0.00 | 0.00 | 0.00 | 56 | 1022.7 |
| 20260506123503 | 48 | 225 | 0.0 | 0.0 | 0.00 | 0.00 | 0.00 | 55 | 1022.6 |
| 20260506123004 | 48 | 225 | 0.0 | 1.0 | 0.00 | 0.00 | 0.00 | 55 | 1022.6 |
| 20260506122504 | 48 | 225 | 1.0 | 2.0 | 0.00 | 0.00 | 0.00 | 56 | 1022.7 |
| 20260506122003 | 48 | 223 | 0.0 | 1.0 | 0.00 | 0.00 | 0.00 | 57 | 1022.7 |
| 20260506121503 | 47 | 222 | 1.0 | 2.0 | 0.00 | 0.00 | 0.00 | 57 | 1022.7 |
| 20260506121004 | 47 | 220 | 1.0 | 3.0 | 0.00 | 0.00 | 0.00 | 58 | 1022.6 |
| 20260506120504 | 46 | 237 | 1.0 | 3.0 | 0.00 | 0.00 | 0.00 | 58 | 1022.6 |
| 20260506115503 | 46 | 235 | 0.0 | 2.0 | 0.00 | 0.00 | 0.00 | 57 | 1022.6 |
| 20260506114003 | 46 | 235 | 1.0 | 3.0 | 0.00 | 0.00 | 0.00 | 58 | 1022.4 |
| 20260506113503 | 45 | 243 | 2.0 | 3.0 | 0.00 | 0.00 | 0.00 | 59 | 1022.4 |
| 20260506113003 | 45 | 242 | 1.0 | 3.0 | 0.00 | 0.00 | 0.00 | 61 | 1022.4 |
| 20260506112503 | 44 | 240 | 0.0 | 0.0 | 0.00 | 0.00 | 0.00 | 62 | 1022.3 |
| 20260506112003 | 44 | 240 | 0.0 | 0.0 | 0.00 | 0.00 | 0.00 | 61 | 1022.4 |
| 20260506111003 | 45 | 240 | 0.0 | 0.0 | 0.00 | 0.00 | 0.00 | 60 | 1022.3 |
| 20260506110503 | 45 | 240 | 0.0 | 0.0 | 0.00 | 0.00 | 0.00 | 60 | 1022.3 |
| 20260506110003 | 45 | 240 | 0.0 | 0.0 | 0.00 | 0.00 | 0.00 | 60 | 1022.3 |
| 20260506105504 | 45 | 240 | 0.0 | 0.0 | 0.00 | 0.00 | 0.00 | 61 | 1022.2 |
| 20260506105004 | 45 | 240 | 0.0 | 0.0 | 0.00 | 0.00 | 0.00 | 61 | 1022.1 |
| 20260506104504 | 45 | 240 | 0.0 | 0.0 | 0.00 | 0.00 | 0.00 | 61 | 1022.1 |
| 20260506104003 | 45 | 240 | 0.0 | 0.0 | 0.00 | 0.00 | 0.00 | 59 | 1022.1 |
| 20260506103504 | 45 | 240 | 0.0 | 0.0 | 0.00 | 0.00 | 0.00 | 58 | 1022.1 |
| 20260506103003 | 46 | 240 | 0.0 | 0.0 | 0.00 | 0.00 | 0.00 | 59 | 1022.0 |
| 20260506102003 | 47 | 240 | 0.0 | 0.0 | 0.00 | 0.00 | 0.00 | 56 | 1022.0 |
| 20260506101503 | 48 | 240 | 0.0 | 0.0 | 0.00 | 0.00 | 0.00 | 55 | 1021.9 |
| 20260506101004 | 48 | 240 | 0.0 | 0.0 | 0.00 | 0.00 | 0.00 | 55 | 1022.0 |
| 20260506095503 | 49 | 240 | 0.0 | 2.0 | 0.00 | 0.00 | 0.00 | 55 | 1022.0 |
| 20260506094504 | 49 | 246 | 1.0 | 3.0 | 0.00 | 0.00 | 0.00 | 54 | 1021.9 |
| 20260506093503 | 50 | 237 | 1.0 | 3.0 | 0.00 | 0.00 | 0.00 | 53 | 1021.8 |
| 20260506093003 | 50 | 244 | 2.0 | 3.0 | 0.00 | 0.00 | 0.00 | 53 | 1021.8 |
| 20260506092504 | 50 | 219 | 0.0 | 2.0 | 0.00 | 0.00 | 0.00 | 53 | 1021.9 |
| 20260506092003 | 50 | 217 | 1.0 | 2.0 | 0.00 | 0.00 | 0.00 | 52 | 1021.9 |
| 20260506091503 | 51 | 213 | 0.0 | 3.0 | 0.00 | 0.00 | 0.00 | 52 | 1021.8 |
| 20260506091004 | 51 | 212 | 2.0 | 3.0 | 0.00 | 0.00 | 0.00 | 52 | 1021.8 |
| 20260506090504 | 51 | 215 | 2.0 | 5.0 | 0.00 | 0.00 | 0.00 | 52 | 1021.8 |
| 20260506090003 | 51 | 220 | 2.0 | 3.0 | 0.00 | 0.00 | 0.00 | 52 | 1022.0 |
| 20260506085504 | 51 | 217 | 1.0 | 3.0 | 0.00 | 0.00 | 0.00 | 53 | 1022.0 |
| 20260506085003 | 50 | 208 | 0.0 | 2.0 | 0.00 | 0.00 | 0.00 | 53 | 1022.0 |
| 20260506084003 | 50 | 206 | 2.0 | 5.0 | 0.00 | 0.00 | 0.00 | 53 | 1022.0 |
| 20260506083503 | 49 | 202 | 3.0 | 5.0 | 0.00 | 0.00 | 0.00 | 55 | 1022.1 |
| 20260506083004 | 49 | 203 | 2.0 | 3.0 | 0.00 | 0.00 | 0.00 | 56 | 1021.8 |
| 20260506082004 | 48 | 206 | 0.0 | 2.0 | 0.00 | 0.00 | 0.00 | 58 | 1021.8 |
| 20260506081503 | 47 | 206 | 2.0 | 3.0 | 0.00 | 0.00 | 0.00 | 60 | 1021.8 |
| 20260506081004 | 47 | 227 | 0.0 | 2.0 | 0.00 | 0.00 | 0.00 | 61 | 1021.7 |
| 20260506080503 | 47 | 246 | 0.0 | 0.0 | 0.00 | 0.00 | 0.00 | 58 | 1021.8 |
| 20260506073503 | 51 | 247 | 0.0 | 0.0 | 0.00 | 0.00 | 0.00 | 54 | 1022.1 |
| 20260506073004 | 52 | 247 | 0.0 | 1.0 | 0.00 | 0.00 | 0.00 | 52 | 1021.9 |
| 20260506072503 | 53 | 246 | 0.0 | 2.0 | 0.00 | 0.00 | 0.00 | 52 | 1021.9 |
| 20260506072003 | 54 | 258 | 0.0 | 0.0 | 0.00 | 0.00 | 0.00 | 51 | 1022.0 |
| 20260506071504 | 54 | 258 | 0.0 | 3.0 | 0.00 | 0.00 | 0.00 | 52 | 1021.9 |
| 20260506070504 | 54 | 241 | 2.0 | 3.0 | 0.00 | 0.00 | 0.00 | 54 | 1021.8 |
| 20260506062503 | 54 | 329 | 3.0 | 5.0 | 0.00 | 0.00 | 0.00 | 56 | 1021.5 |
| 20260506061004 | 53 | 239 | 0.0 | 1.0 | 0.00 | 0.00 | 0.00 | 56 | 1021.3 |
| 20260506060503 | 53 | 239 | 0.0 | 0.0 | 0.00 | 0.00 | 0.00 | 54 | 1021.3 |
| 20260506051003 | 56 | 299 | 1.0 | 6.0 | 0.00 | 0.00 | 0.00 | 51 | 1020.6 |
| 20260506050503 | 57 | 304 | 1.0 | 5.0 | 0.00 | 0.00 | 0.00 | 51 | 1020.6 |
| 20260506044504 | 55 | 242 | 0.0 | 2.0 | 0.00 | 0.00 | 0.00 | 53 | 1020.5 |
| 20260506044003 | 55 | 204 | 1.0 | 3.0 | 0.00 | 0.00 | 0.00 | 52 | 1020.4 |
| 20260506043503 | 55 | 206 | 2.0 | 7.0 | 0.00 | 0.00 | 0.00 | 52 | 1020.3 |
| 20260506042004 | 56 | 184 | 1.0 | 3.0 | 0.00 | 0.00 | 0.00 | 51 | 1020.2 |
| 20260506041503 | 56 | 176 | 0.0 | 0.0 | 0.00 | 0.00 | 0.00 | 50 | 1020.1 |
| 20260506041003 | 57 | 176 | 0.0 | 2.0 | 0.00 | 0.00 | 0.00 | 50 | 1020.1 |
| 20260506040004 | 59 | 285 | 0.0 | 2.0 | 0.00 | 0.00 | 0.00 | 48 | 1020.0 |
| 20260506035503 | 59 | 292 | 3.0 | 9.0 | 0.00 | 0.00 | 0.00 | 48 | 1019.9 |
| 20260506035004 | 59 | 316 | 3.0 | 6.0 | 0.00 | 0.00 | 0.00 | 47 | 1019.7 |
| 20260506034004 | 59 | 322 | 6.0 | 10.0 | 0.00 | 0.00 | 0.00 | 47 | 1019.5 |
| 20260506033503 | 59 | 320 | 5.0 | 12.0 | 0.00 | 0.00 | 0.00 | 47 | 1019.4 |
| 20260506033005 | 59 | 304 | 4.0 | 9.0 | 0.00 | 0.00 | 0.00 | 47 | 1019.3 |
| 20260506032503 | 59 | 308 | 6.0 | 10.0 | 0.00 | 0.00 | 0.00 | 46 | 1019.3 |
| 20260506032003 | 60 | 318 | 6.0 | 12.0 | 0.00 | 0.00 | 0.00 | 46 | 1019.2 |
| 20260506031503 | 60 | 315 | 9.0 | 12.0 | 0.00 | 0.00 | 0.00 | 46 | 1019.2 |
| 20260506031003 | 60 | 316 | 6.0 | 10.0 | 0.00 | 0.00 | 0.00 | 46 | 1019.2 |
| 20260506030503 | 60 | 322 | 6.0 | 12.0 | 0.00 | 0.00 | 0.00 | 45 | 1019.1 |
| 20260506030004 | 60 | 322 | 5.0 | 12.0 | 0.00 | 0.00 | 0.00 | 44 | 1019.1 |
| 20260506025503 | 60 | 319 | 7.0 | 12.0 | 0.00 | 0.00 | 0.00 | 44 | 1019.1 |
| 20260506025004 | 60 | 331 | 3.0 | 12.0 | 0.00 | 0.00 | 0.00 | 42 | 1019.0 |
| 20260506024503 | 61 | 307 | 5.0 | 12.0 | 0.00 | 0.00 | 0.00 | 42 | 1019.0 |
| 20260506024004 | 61 | 328 | 7.0 | 12.0 | 0.00 | 0.00 | 0.00 | 42 | 1019.0 |
| 20260506023504 | 61 | 324 | 9.0 | 12.0 | 0.00 | 0.00 | 0.00 | 41 | 1019.0 |
| 20260506023003 | 61 | 321 | 5.0 | 10.0 | 0.00 | 0.00 | 0.00 | 41 | 1018.7 |
| 20260506022504 | 61 | 340 | 7.0 | 12.0 | 0.00 | 0.00 | 0.00 | 39 | 1018.7 |
| 20260506022004 | 62 | 319 | 6.0 | 12.0 | 0.00 | 0.00 | 0.00 | 39 | 1018.7 |
| 20260506021505 | 62 | 320 | 9.0 | 13.0 | 0.00 | 0.00 | 0.00 | 38 | 1018.5 |
| 20260506021003 | 63 | 347 | 6.0 | 10.0 | 0.00 | 0.00 | 0.00 | 36 | 1018.3 |
| 20260506015503 | 63 | 351 | 9.0 | 13.0 | 0.00 | 0.00 | 0.00 | 35 | 1018.2 |
| 20260506015004 | 64 | 320 | 7.0 | 12.0 | 0.00 | 0.00 | 0.00 | 35 | 1018.3 |
| 20260506014003 | 64 | 336 | 6.0 | 12.0 | 0.00 | 0.00 | 0.00 | 34 | 1018.1 |
| 20260506013503 | 64 | 351 | 9.0 | 14.0 | 0.00 | 0.00 | 0.00 | 34 | 1018.1 |
| 20260506013003 | 65 | 327 | 6.0 | 12.0 | 0.00 | 0.00 | 0.00 | 32 | 1018.1 |
| 20260506012503 | 65 | 328 | 6.0 | 12.0 | 0.00 | 0.00 | 0.00 | 33 | 1018.1 |
| 20260506012004 | 65 | 320 | 7.0 | 12.0 | 0.00 | 0.00 | 0.00 | 33 | 1018.0 |
| 20260506011504 | 65 | 306 | 5.0 | 13.0 | 0.00 | 0.00 | 0.00 | 33 | 1018.1 |
| 20260506011004 | 65 | 301 | 8.0 | 12.0 | 0.00 | 0.00 | 0.00 | 34 | 1018.1 |
| 20260506010504 | 64 | 349 | 5.0 | 10.0 | 0.00 | 0.00 | 0.00 | 35 | 1018.2 |
| 20260506010004 | 63 | 239 | 2.0 | 6.0 | 0.00 | 0.00 | 0.00 | 40 | 1018.2 |
| 20260506005504 | 63 | 235 | 3.0 | 5.0 | 0.00 | 0.00 | 0.00 | 40 | 1018.2 |
| 20260506003504 | 65 | 242 | 5.0 | 20.0 | 0.00 | 0.00 | 0.00 | 37 | 1017.9 |
| 20260506003005 | 65 | 190 | 5.0 | 9.0 | 0.00 | 0.00 | 0.00 | 38 | 1018.1 |
| 20260506002503 | 64 | 218 | 3.0 | 7.0 | 0.00 | 0.00 | 0.00 | 38 | 1018.0 |
| 20260506001503 | 64 | 248 | 4.0 | 10.0 | 0.00 | 0.00 | 0.00 | 38 | 1018.0 |
| 20260506000503 | 64 | 217 | 5.0 | 9.0 | 0.00 | 0.00 | 0.00 | 38 | 1018.0 |
| 20260506000004 | 64 | 240 | 6.0 | 10.0 | 0.00 | 0.00 | 0.00 | 39 | 1018.1 |
| 20260505235503 | 64 | 256 | 7.0 | 12.0 | 0.00 | 0.00 | 0.00 | 39 | 1018.1 |
| 20260505235003 | 64 | 241 | 3.0 | 9.0 | 0.00 | 0.00 | 0.00 | 39 | 1018.1 |
| 20260505234503 | 64 | 219 | 4.0 | 9.0 | 0.00 | 0.00 | 0.00 | 39 | 1018.0 |
| 20260505234004 | 64 | 206 | 3.0 | 7.0 | 0.00 | 0.00 | 0.00 | 38 | 1018.0 |
| 20260505233005 | 64 | 189 | 3.0 | 9.0 | 0.00 | 0.00 | 0.00 | 38 | 1018.0 |
| 20260505232504 | 64 | 209 | 3.0 | 12.0 | 0.00 | 0.00 | 0.00 | 38 | 1018.0 |
| 20260505232004 | 64 | 2 | 1.0 | 6.0 | 0.00 | 0.00 | 0.00 | 39 | 1018.1 |
| 20260505231504 | 63 | 149 | 1.0 | 3.0 | 0.00 | 0.00 | 0.00 | 39 | 1018.0 |
| 20260505231004 | 63 | 146 | 2.0 | 7.0 | 0.00 | 0.00 | 0.00 | 39 | 1018.0 |
| 20260505230504 | 63 | 171 | 2.0 | 7.0 | 0.00 | 0.00 | 0.00 | 39 | 1018.0 |
| 20260505230004 | 64 | 218 | 3.0 | 8.0 | 0.00 | 0.00 | 0.00 | 38 | 1018.0 |
| 20260505225504 | 64 | 187 | 1.0 | 5.0 | 0.00 | 0.00 | 0.00 | 39 | 1018.2 |
| 20260505225003 | 64 | 200 | 1.0 | 5.0 | 0.00 | 0.00 | 0.00 | 38 | 1018.1 |
| 20260505224504 | 64 | 239 | 3.0 | 6.0 | 0.00 | 0.00 | 0.00 | 37 | 1018.2 |
| 20260505224004 | 64 | 223 | 2.0 | 12.0 | 0.00 | 0.00 | 0.00 | 38 | 1018.2 |
| 20260505223505 | 64 | 173 | 1.0 | 6.0 | 0.00 | 0.00 | 0.00 | 37 | 1018.3 |
| 20260505223003 | 65 | 188 | 3.0 | 9.0 | 0.00 | 0.00 | 0.00 | 37 | 1018.3 |
| 20260505222503 | 65 | 216 | 4.0 | 7.0 | 0.00 | 0.00 | 0.00 | 37 | 1018.3 |
| 20260505222004 | 65 | 295 | 4.0 | 10.0 | 0.00 | 0.00 | 0.00 | 37 | 1018.2 |
| 20260505221004 | 64 | 187 | 1.0 | 7.0 | 0.00 | 0.00 | 0.00 | 38 | 1018.4 |
| 20260505220504 | 63 | 232 | 4.0 | 10.0 | 0.00 | 0.00 | 0.00 | 38 | 1018.5 |
| 20260505220003 | 63 | 243 | 3.0 | 7.0 | 0.00 | 0.00 | 0.00 | 38 | 1018.5 |
| 20260505215504 | 63 | 151 | 5.0 | 8.0 | 0.00 | 0.00 | 0.00 | 38 | 1018.5 |
| 20260505215003 | 63 | 14 | 1.0 | 5.0 | 0.00 | 0.00 | 0.00 | 39 | 1018.5 |
| 20260505214503 | 62 | 53 | 1.0 | 5.0 | 0.00 | 0.00 | 0.00 | 40 | 1018.6 |
| 20260505214003 | 62 | 192 | 2.0 | 7.0 | 0.00 | 0.00 | 0.00 | 40 | 1018.7 |
| 20260505213005 | 62 | 151 | 3.0 | 9.0 | 0.00 | 0.00 | 0.00 | 40 | 1018.9 |
| 20260505212503 | 62 | 192 | 3.0 | 9.0 | 0.00 | 0.00 | 0.00 | 41 | 1018.9 |